Year,Month,Day,Hour,Minute,Value (Times are PST for temperature in C)
2014,08,19,00,00,20.70
2014,08,19,00,01,20.70
2014,08,19,00,02,20.70
2014,08,19,00,03,20.70
2014,08,19,00,04,20.70
2014,08,19,00,05,20.70
2014,08,19,00,06,20.70
2014,08,19,00,07,20.70
2014,08,19,00,08,20.60
2014,08,19,00,09,20.60
2014,08,19,00,10,20.60
2014,08,19,00,11,20.60
2014,08,19,00,12,20.60
2014,08,19,00,13,20.60
2014,08,19,00,14,20.60
2014,08,19,00,15,20.50
2014,08,19,00,16,20.50
2014,08,19,00,17,20.50
2014,08,19,00,18,20.50
2014,08,19,00,19,20.40
2014,08,19,00,20,20.40
2014,08,19,00,21,20.40
2014,08,19,00,22,20.40
2014,08,19,00,23,20.40
2014,08,19,00,24,20.40
2014,08,19,00,25,20.40
2014,08,19,00,26,20.30
2014,08,19,00,27,20.30
2014,08,19,00,28,20.30
2014,08,19,00,29,20.30
2014,08,19,00,30,20.30
2014,08,19,00,31,20.30
2014,08,19,00,32,20.30
2014,08,19,00,33,20.30
2014,08,19,00,34,20.30
2014,08,19,00,35,20.20
2014,08,19,00,36,20.20
2014,08,19,00,37,20.20
2014,08,19,00,38,20.20
2014,08,19,00,39,20.20
2014,08,19,00,40,20.20
2014,08,19,00,41,20.20
2014,08,19,00,42,20.20
2014,08,19,00,43,20.20
2014,08,19,00,44,20.20
2014,08,19,00,45,20.20
2014,08,19,00,46,20.10
2014,08,19,00,47,20.10
2014,08,19,00,48,20.10
2014,08,19,00,49,20.20
2014,08,19,00,50,20.20
2014,08,19,00,51,20.20
2014,08,19,00,52,20.20
2014,08,19,00,53,20.10
2014,08,19,00,54,20.10
2014,08,19,00,55,20.10
2014,08,19,00,56,20.20
2014,08,19,00,57,20.20
2014,08,19,00,58,20.20
2014,08,19,00,59,20.20
2014,08,19,01,00,20.10
2014,08,19,01,01,20.10
2014,08,19,01,02,20.10
2014,08,19,01,03,20.10
2014,08,19,01,04,20.10
2014,08,19,01,05,20.10
2014,08,19,01,06,20.10
2014,08,19,01,07,20.10
2014,08,19,01,08,20.10
2014,08,19,01,09,20.10
2014,08,19,01,10,20.10
2014,08,19,01,11,20.10
2014,08,19,01,12,20.00
2014,08,19,01,13,20.00
2014,08,19,01,14,20.00
2014,08,19,01,15,20.00
2014,08,19,01,16,19.90
2014,08,19,01,17,19.90
2014,08,19,01,18,19.80
2014,08,19,01,19,19.80
2014,08,19,01,20,19.80
2014,08,19,01,21,19.70
2014,08,19,01,22,19.70
2014,08,19,01,23,19.60
2014,08,19,01,24,19.60
2014,08,19,01,25,19.50
2014,08,19,01,26,19.50
2014,08,19,01,27,19.40
2014,08,19,01,28,19.40
2014,08,19,01,29,19.30
2014,08,19,01,30,19.30
2014,08,19,01,31,19.30
2014,08,19,01,32,19.20
2014,08,19,01,33,19.20
2014,08,19,01,34,19.20
2014,08,19,01,35,19.20
2014,08,19,01,36,19.10
2014,08,19,01,37,19.10
2014,08,19,01,38,19.10
2014,08,19,01,39,19.10
2014,08,19,01,40,19.10
2014,08,19,01,41,19.10
2014,08,19,01,42,19.10
2014,08,19,01,43,19.10
2014,08,19,01,44,19.10
2014,08,19,01,45,19.10
2014,08,19,01,46,19.20
2014,08,19,01,47,19.20
2014,08,19,01,48,19.20
2014,08,19,01,49,19.20
2014,08,19,01,50,19.30
2014,08,19,01,51,19.30
2014,08,19,01,52,19.30
2014,08,19,01,53,19.30
2014,08,19,01,54,19.30
2014,08,19,01,55,19.30
2014,08,19,01,56,19.30
2014,08,19,01,57,19.30
2014,08,19,01,58,19.30
2014,08,19,01,59,19.30
2014,08,19,02,00,19.30
2014,08,19,02,01,19.30
2014,08,19,02,02,19.30
2014,08,19,02,03,19.30
2014,08,19,02,04,19.30
2014,08,19,02,05,19.20
2014,08,19,02,06,19.20
2014,08,19,02,07,19.20
2014,08,19,02,08,19.10
2014,08,19,02,09,19.10
2014,08,19,02,10,19.00
2014,08,19,02,11,19.00
2014,08,19,02,12,18.90
2014,08,19,02,13,18.90
2014,08,19,02,14,18.80
2014,08,19,02,15,18.80
2014,08,19,02,16,18.70
2014,08,19,02,17,18.70
2014,08,19,02,18,18.60
2014,08,19,02,19,18.60
2014,08,19,02,20,18.50
2014,08,19,02,21,18.50
2014,08,19,02,22,18.40
2014,08,19,02,23,18.40
2014,08,19,02,24,18.40
2014,08,19,02,25,18.40
2014,08,19,02,26,18.50
2014,08,19,02,27,18.50
2014,08,19,02,28,18.60
2014,08,19,02,29,18.60
2014,08,19,02,30,18.60
2014,08,19,02,31,18.70
2014,08,19,02,32,18.80
2014,08,19,02,33,18.90
2014,08,19,02,34,18.90
2014,08,19,02,35,18.90
2014,08,19,02,36,19.00
2014,08,19,02,37,19.10
2014,08,19,02,38,19.10
2014,08,19,02,39,19.20
2014,08,19,02,40,19.20
2014,08,19,02,41,19.30
2014,08,19,02,42,19.30
2014,08,19,02,43,19.30
2014,08,19,02,44,19.30
2014,08,19,02,45,19.40
2014,08,19,02,46,19.40
2014,08,19,02,47,19.40
2014,08,19,02,48,19.40
2014,08,19,02,49,19.40
2014,08,19,02,50,19.40
2014,08,19,02,51,19.40
2014,08,19,02,52,19.40
2014,08,19,02,53,19.40
2014,08,19,02,54,19.40
2014,08,19,02,55,19.40
2014,08,19,02,56,19.30
2014,08,19,02,57,19.30
2014,08,19,02,58,19.30
2014,08,19,02,59,19.30
2014,08,19,03,00,19.20
2014,08,19,03,01,19.20
2014,08,19,03,02,19.10
2014,08,19,03,03,19.10
2014,08,19,03,04,19.00
2014,08,19,03,05,19.00
2014,08,19,03,06,18.90
2014,08,19,03,07,18.90
2014,08,19,03,08,18.80
2014,08,19,03,09,18.80
2014,08,19,03,10,18.70
2014,08,19,03,11,18.70
2014,08,19,03,12,18.70
2014,08,19,03,13,18.60
2014,08,19,03,14,18.60
2014,08,19,03,15,18.60
2014,08,19,03,16,18.50
2014,08,19,03,17,18.40
2014,08,19,03,18,18.40
2014,08,19,03,19,18.40
2014,08,19,03,20,18.40
2014,08,19,03,21,18.30
2014,08,19,03,22,18.30
2014,08,19,03,23,18.30
2014,08,19,03,24,18.20
2014,08,19,03,25,18.20
2014,08,19,03,26,18.20
2014,08,19,03,27,18.10
2014,08,19,03,28,18.10
2014,08,19,03,29,18.10
2014,08,19,03,30,18.10
2014,08,19,03,31,18.00
2014,08,19,03,32,18.00
2014,08,19,03,33,17.90
2014,08,19,03,34,17.90
2014,08,19,03,35,17.90
2014,08,19,03,36,17.80
2014,08,19,03,37,17.80
2014,08,19,03,38,17.70
2014,08,19,03,39,17.70
2014,08,19,03,40,17.70
2014,08,19,03,41,17.60
2014,08,19,03,42,17.60
2014,08,19,03,43,17.60
2014,08,19,03,44,17.50
2014,08,19,03,45,17.50
2014,08,19,03,46,17.40
2014,08,19,03,47,17.40
2014,08,19,03,48,17.40
2014,08,19,03,49,17.40
2014,08,19,03,50,17.30
2014,08,19,03,51,17.30
2014,08,19,03,52,17.30
2014,08,19,03,53,17.30
2014,08,19,03,54,17.30
2014,08,19,03,55,17.30
2014,08,19,03,56,17.30
2014,08,19,03,57,17.30
2014,08,19,03,58,17.40
2014,08,19,03,59,17.40
2014,08,19,04,00,17.50
2014,08,19,04,01,17.60
2014,08,19,04,02,17.60
2014,08,19,04,03,17.70
2014,08,19,04,04,17.80
2014,08,19,04,05,17.90
2014,08,19,04,06,17.90
2014,08,19,04,07,18.00
2014,08,19,04,08,18.10
2014,08,19,04,09,18.20
2014,08,19,04,10,18.20
2014,08,19,04,11,18.30
2014,08,19,04,12,18.30
2014,08,19,04,13,18.30
2014,08,19,04,14,18.30
2014,08,19,04,15,18.40
2014,08,19,04,16,18.40
2014,08,19,04,17,18.40
2014,08,19,04,18,18.40
2014,08,19,04,19,18.40
2014,08,19,04,20,18.40
2014,08,19,04,21,18.50
2014,08,19,04,22,18.50
2014,08,19,04,23,18.50
2014,08,19,04,24,18.50
2014,08,19,04,25,18.50
2014,08,19,04,26,18.50
2014,08,19,04,27,18.40
2014,08,19,04,28,18.40
2014,08,19,04,29,18.40
2014,08,19,04,30,18.40
2014,08,19,04,31,18.40
2014,08,19,04,32,18.30
2014,08,19,04,33,18.30
2014,08,19,04,34,18.30
2014,08,19,04,35,18.30
2014,08,19,04,36,18.20
2014,08,19,04,37,18.20
2014,08,19,04,38,18.20
2014,08,19,04,39,18.10
2014,08,19,04,40,18.10
2014,08,19,04,41,18.10
2014,08,19,04,42,18.10
2014,08,19,04,43,18.00
2014,08,19,04,44,18.00
2014,08,19,04,45,18.00
2014,08,19,04,46,18.00
2014,08,19,04,47,17.90
2014,08,19,04,48,17.90
2014,08,19,04,49,17.90
2014,08,19,04,50,17.90
2014,08,19,04,51,17.90
2014,08,19,04,52,18.00
2014,08,19,04,53,18.00
2014,08,19,04,54,18.00
2014,08,19,04,55,18.00
2014,08,19,04,56,18.00
2014,08,19,04,57,18.00
2014,08,19,04,58,18.00
2014,08,19,04,59,18.10
2014,08,19,05,00,18.10
2014,08,19,05,01,18.10
2014,08,19,05,02,18.10
2014,08,19,05,03,18.00
2014,08,19,05,04,18.00
2014,08,19,05,05,18.00
2014,08,19,05,06,18.00
2014,08,19,05,07,18.00
2014,08,19,05,08,17.90
2014,08,19,05,09,17.90
2014,08,19,05,10,17.90
2014,08,19,05,11,17.90
2014,08,19,05,12,17.90
2014,08,19,05,13,17.90
2014,08,19,05,14,17.80
2014,08,19,05,15,17.80
2014,08,19,05,16,17.80
2014,08,19,05,17,17.80
2014,08,19,05,18,17.80
2014,08,19,05,19,17.70
2014,08,19,05,20,17.70
2014,08,19,05,21,17.70
2014,08,19,05,22,17.70
2014,08,19,05,23,17.70
2014,08,19,05,24,17.70
2014,08,19,05,25,17.60
2014,08,19,05,26,17.60
2014,08,19,05,27,17.50
2014,08,19,05,28,17.40
2014,08,19,05,29,17.40
2014,08,19,05,30,17.40
2014,08,19,05,31,17.30
2014,08,19,05,32,17.30
2014,08,19,05,33,17.20
2014,08,19,05,34,17.20
2014,08,19,05,35,17.20
2014,08,19,05,36,17.10
2014,08,19,05,37,17.10
2014,08,19,05,38,17.00
2014,08,19,05,39,17.00
2014,08,19,05,40,16.90
2014,08,19,05,41,16.90
2014,08,19,05,42,16.80
2014,08,19,05,43,16.80
2014,08,19,05,44,16.80
2014,08,19,05,45,16.80
2014,08,19,05,46,16.80
2014,08,19,05,47,16.80
2014,08,19,05,48,16.80
2014,08,19,05,49,16.80
2014,08,19,05,50,16.70
2014,08,19,05,51,16.70
2014,08,19,05,52,16.70
2014,08,19,05,53,16.70
2014,08,19,05,54,16.70
2014,08,19,05,55,16.70
2014,08,19,05,56,16.70
2014,08,19,05,57,16.70
2014,08,19,05,58,16.70
2014,08,19,05,59,16.70
2014,08,19,06,00,16.70
2014,08,19,06,01,16.70
2014,08,19,06,02,16.70
2014,08,19,06,03,16.70
2014,08,19,06,04,16.80
2014,08,19,06,05,16.80
2014,08,19,06,06,16.80
2014,08,19,06,07,16.80
2014,08,19,06,08,16.80
2014,08,19,06,09,16.90
2014,08,19,06,10,16.90
2014,08,19,06,11,16.90
2014,08,19,06,12,16.90
2014,08,19,06,13,16.90
2014,08,19,06,14,16.90
2014,08,19,06,15,16.90
2014,08,19,06,16,16.90
2014,08,19,06,17,16.80
2014,08,19,06,18,16.80
2014,08,19,06,19,16.80
2014,08,19,06,20,16.80
2014,08,19,06,21,16.80
2014,08,19,06,22,16.80
2014,08,19,06,23,16.70
2014,08,19,06,24,16.70
2014,08,19,06,25,16.70
2014,08,19,06,26,16.70
2014,08,19,06,27,16.70
2014,08,19,06,28,16.70
2014,08,19,06,29,16.70
2014,08,19,06,30,16.70
2014,08,19,06,31,16.70
2014,08,19,06,32,16.70
2014,08,19,06,33,16.70
2014,08,19,06,34,16.80
2014,08,19,06,35,16.80
2014,08,19,06,36,16.80
2014,08,19,06,37,16.80
2014,08,19,06,38,16.80
2014,08,19,06,39,16.80
2014,08,19,06,40,16.80
2014,08,19,06,41,16.80
2014,08,19,06,42,16.80
2014,08,19,06,43,16.80
2014,08,19,06,44,16.80
2014,08,19,06,45,16.70
2014,08,19,06,46,16.70
2014,08,19,06,47,16.70
2014,08,19,06,48,16.70
2014,08,19,06,49,16.70
2014,08,19,06,50,16.70
2014,08,19,06,51,16.70
2014,08,19,06,52,16.80
2014,08,19,06,53,16.80
2014,08,19,06,54,16.80
2014,08,19,06,55,16.80
2014,08,19,06,56,16.80
2014,08,19,06,57,16.80
2014,08,19,06,58,16.80
2014,08,19,06,59,16.80
2014,08,19,07,00,16.80
2014,08,19,07,01,16.80
2014,08,19,07,02,16.80
2014,08,19,07,03,16.80
2014,08,19,07,04,16.80
2014,08,19,07,05,16.80
2014,08,19,07,06,16.80
2014,08,19,07,07,16.80
2014,08,19,07,08,16.80
2014,08,19,07,09,16.80
2014,08,19,07,10,16.80
2014,08,19,07,11,16.80
2014,08,19,07,12,16.90
2014,08,19,07,13,16.90
2014,08,19,07,14,16.90
2014,08,19,07,15,16.90
2014,08,19,07,16,16.90
2014,08,19,07,17,16.90
2014,08,19,07,18,16.90
2014,08,19,07,19,16.90
2014,08,19,07,20,17.00
2014,08,19,07,21,17.00
2014,08,19,07,22,17.00
2014,08,19,07,23,17.10
2014,08,19,07,24,17.10
2014,08,19,07,25,17.10
2014,08,19,07,26,17.10
2014,08,19,07,27,17.10
2014,08,19,07,28,17.20
2014,08,19,07,29,17.20
2014,08,19,07,30,17.30
2014,08,19,07,31,17.30
2014,08,19,07,32,17.40
2014,08,19,07,33,17.40
2014,08,19,07,34,17.50
2014,08,19,07,35,17.60
2014,08,19,07,36,17.60
2014,08,19,07,37,17.70
2014,08,19,07,38,17.70
2014,08,19,07,39,17.80
2014,08,19,07,40,17.80
2014,08,19,07,41,17.90
2014,08,19,07,42,18.00
2014,08,19,07,43,18.10
2014,08,19,07,44,18.20
2014,08,19,07,45,18.30
2014,08,19,07,46,18.30
2014,08,19,07,47,18.40
2014,08,19,07,48,18.50
2014,08,19,07,49,18.60
2014,08,19,07,50,18.60
2014,08,19,07,51,18.70
2014,08,19,07,52,18.80
2014,08,19,07,53,18.80
2014,08,19,07,54,18.80
2014,08,19,07,55,18.90
2014,08,19,07,56,18.90
2014,08,19,07,57,19.00
2014,08,19,07,58,19.00
2014,08,19,07,59,19.10
2014,08,19,08,00,19.10
2014,08,19,08,01,19.10
2014,08,19,08,02,19.10
2014,08,19,08,03,19.20
2014,08,19,08,04,19.20
2014,08,19,08,05,19.20
2014,08,19,08,06,19.20
2014,08,19,08,07,19.30
2014,08,19,08,08,19.30
2014,08,19,08,09,19.30
2014,08,19,08,10,19.30
2014,08,19,08,11,19.40
2014,08,19,08,12,19.40
2014,08,19,08,13,19.40
2014,08,19,08,14,19.40
2014,08,19,08,15,19.50
2014,08,19,08,16,19.50
2014,08,19,08,17,19.50
2014,08,19,08,18,19.60
2014,08,19,08,19,19.60
2014,08,19,08,20,19.70
2014,08,19,08,21,19.70
2014,08,19,08,22,19.70
2014,08,19,08,23,19.80
2014,08,19,08,24,19.80
2014,08,19,08,25,19.80
2014,08,19,08,26,19.80
2014,08,19,08,27,19.80
2014,08,19,08,28,19.80
2014,08,19,08,29,19.80
2014,08,19,08,30,19.80
2014,08,19,08,31,19.80
2014,08,19,08,32,19.80
2014,08,19,08,33,19.80
2014,08,19,08,34,19.80
2014,08,19,08,35,19.90
2014,08,19,08,36,19.90
2014,08,19,08,37,19.90
2014,08,19,08,38,19.90
2014,08,19,08,39,19.90
2014,08,19,08,40,19.90
2014,08,19,08,41,20.00
2014,08,19,08,42,20.00
2014,08,19,08,43,20.00
2014,08,19,08,44,20.00
2014,08,19,08,45,20.00
2014,08,19,08,46,20.00
2014,08,19,08,47,20.10
2014,08,19,08,48,20.10
2014,08,19,08,49,20.10
2014,08,19,08,50,20.10
2014,08,19,08,51,20.10
2014,08,19,08,52,20.10
2014,08,19,08,53,20.20
2014,08,19,08,54,20.20
2014,08,19,08,55,20.20
2014,08,19,08,56,20.20
2014,08,19,08,57,20.20
2014,08,19,08,58,20.30
2014,08,19,08,59,20.30
2014,08,19,09,00,20.40
2014,08,19,09,01,20.50
2014,08,19,09,02,20.60
2014,08,19,09,03,20.70
2014,08,19,09,04,20.70
2014,08,19,09,05,20.80
2014,08,19,09,06,20.80
2014,08,19,09,07,20.70
2014,08,19,09,08,20.70
2014,08,19,09,09,20.60
2014,08,19,09,10,20.60
2014,08,19,09,11,20.60
2014,08,19,09,12,20.60
2014,08,19,09,13,20.60
2014,08,19,09,14,20.60
2014,08,19,09,15,20.60
2014,08,19,09,16,20.60
2014,08,19,09,17,20.70
2014,08,19,09,18,20.70
2014,08,19,09,19,20.70
2014,08,19,09,20,20.80
2014,08,19,09,21,20.80
2014,08,19,09,22,20.90
2014,08,19,09,23,21.00
2014,08,19,09,24,21.00
2014,08,19,09,25,21.10
2014,08,19,09,26,21.20
2014,08,19,09,27,21.20
2014,08,19,09,28,21.20
2014,08,19,09,29,21.20
2014,08,19,09,30,21.20
2014,08,19,09,31,21.20
2014,08,19,09,32,21.20
2014,08,19,09,33,21.20
2014,08,19,09,34,21.20
2014,08,19,09,35,21.20
2014,08,19,09,36,21.10
2014,08,19,09,37,21.10
2014,08,19,09,38,21.10
2014,08,19,09,39,21.10
2014,08,19,09,40,21.10
2014,08,19,09,41,21.20
2014,08,19,09,42,21.20
2014,08,19,09,43,21.20
2014,08,19,09,44,21.30
2014,08,19,09,45,21.30
2014,08,19,09,46,21.40
2014,08,19,09,47,21.50
2014,08,19,09,48,21.50
2014,08,19,09,49,21.60
2014,08,19,09,50,21.60
2014,08,19,09,51,21.70
2014,08,19,09,52,21.70
2014,08,19,09,53,21.70
2014,08,19,09,54,21.80
2014,08,19,09,55,21.80
2014,08,19,09,56,21.70
2014,08,19,09,57,21.70
2014,08,19,09,58,21.70
2014,08,19,09,59,21.60
2014,08,19,10,00,21.50
2014,08,19,10,01,21.50
2014,08,19,10,02,21.40
2014,08,19,10,03,21.40
2014,08,19,10,04,21.40
2014,08,19,10,05,21.40
2014,08,19,10,06,21.40
2014,08,19,10,07,21.40
2014,08,19,10,08,21.50
2014,08,19,10,09,21.50
2014,08,19,10,10,21.50
2014,08,19,10,11,21.50
2014,08,19,10,12,21.50
2014,08,19,10,13,21.50
2014,08,19,10,14,21.50
2014,08,19,10,15,21.60
2014,08,19,10,16,21.60
2014,08,19,10,17,21.70
2014,08,19,10,18,21.70
2014,08,19,10,19,21.60
2014,08,19,10,20,21.60
2014,08,19,10,21,21.70
2014,08,19,10,22,21.70
2014,08,19,10,23,21.70
2014,08,19,10,24,21.60
2014,08,19,10,25,21.60
2014,08,19,10,26,21.70
2014,08,19,10,27,21.70
2014,08,19,10,28,21.70
2014,08,19,10,29,21.70
2014,08,19,10,30,21.80
2014,08,19,10,31,21.80
2014,08,19,10,32,21.80
2014,08,19,10,33,21.90
2014,08,19,10,34,21.90
2014,08,19,10,35,21.80
2014,08,19,10,36,21.80
2014,08,19,10,37,21.80
2014,08,19,10,38,21.80
2014,08,19,10,39,21.80
2014,08,19,10,40,21.70
2014,08,19,10,41,21.70
2014,08,19,10,42,21.70
2014,08,19,10,43,21.70
2014,08,19,10,44,21.80
2014,08,19,10,45,21.80
2014,08,19,10,46,21.80
2014,08,19,10,47,21.90
2014,08,19,10,48,21.90
2014,08,19,10,49,21.90
2014,08,19,10,50,21.90
2014,08,19,10,51,21.90
2014,08,19,10,52,21.80
2014,08,19,10,53,21.70
2014,08,19,10,54,21.60
2014,08,19,10,55,21.50
2014,08,19,10,56,21.40
2014,08,19,10,57,21.30
2014,08,19,10,58,21.30
2014,08,19,10,59,21.20
2014,08,19,11,00,21.10
2014,08,19,11,01,21.00
2014,08,19,11,02,20.90
2014,08,19,11,03,20.90
2014,08,19,11,04,20.90
2014,08,19,11,05,20.90
2014,08,19,11,06,20.90
2014,08,19,11,07,20.90
2014,08,19,11,08,20.80
2014,08,19,11,09,20.80
2014,08,19,11,10,20.80
2014,08,19,11,11,20.90
2014,08,19,11,12,21.00
2014,08,19,11,13,21.10
2014,08,19,11,14,21.20
2014,08,19,11,15,21.30
2014,08,19,11,16,21.30
2014,08,19,11,17,21.40
2014,08,19,11,18,21.50
2014,08,19,11,19,21.50
2014,08,19,11,20,21.40
2014,08,19,11,21,21.40
2014,08,19,11,22,21.30
2014,08,19,11,23,21.30
2014,08,19,11,24,21.30
2014,08,19,11,25,21.30
2014,08,19,11,26,21.30
2014,08,19,11,27,21.40
2014,08,19,11,28,21.40
2014,08,19,11,29,21.50
2014,08,19,11,30,21.50
2014,08,19,11,31,21.60
2014,08,19,11,32,21.60
2014,08,19,11,33,21.60
2014,08,19,11,34,21.60
2014,08,19,11,35,21.60
2014,08,19,11,36,21.60
2014,08,19,11,37,21.50
2014,08,19,11,38,21.50
2014,08,19,11,39,21.60
2014,08,19,11,40,21.60
2014,08,19,11,41,21.60
2014,08,19,11,42,21.60
2014,08,19,11,43,21.50
2014,08,19,11,44,21.50
2014,08,19,11,45,21.50
2014,08,19,11,46,21.50
2014,08,19,11,47,21.40
2014,08,19,11,48,21.40
2014,08,19,11,49,21.40
2014,08,19,11,50,21.40
2014,08,19,11,51,21.50
2014,08,19,11,52,21.60
2014,08,19,11,53,21.60
2014,08,19,11,54,21.70
2014,08,19,11,55,21.70
2014,08,19,11,56,21.80
2014,08,19,11,57,21.80
2014,08,19,11,58,21.80
2014,08,19,11,59,21.80
2014,08,19,12,00,21.90
2014,08,19,12,01,21.90
2014,08,19,12,02,21.90
2014,08,19,12,03,21.90
2014,08,19,12,04,21.90
2014,08,19,12,05,22.00
2014,08,19,12,06,22.00
2014,08,19,12,07,22.00
2014,08,19,12,08,22.10
2014,08,19,12,09,22.10
2014,08,19,12,10,22.10
2014,08,19,12,11,22.10
2014,08,19,12,12,22.10
2014,08,19,12,13,22.10
2014,08,19,12,14,22.20
2014,08,19,12,15,22.20
2014,08,19,12,16,22.20
2014,08,19,12,17,22.30
2014,08,19,12,18,22.30
2014,08,19,12,19,22.30
2014,08,19,12,20,22.30
2014,08,19,12,21,22.30
2014,08,19,12,22,22.30
2014,08,19,12,23,22.30
2014,08,19,12,24,22.30
2014,08,19,12,25,22.30
2014,08,19,12,26,22.30
2014,08,19,12,27,22.30
2014,08,19,12,28,22.30
2014,08,19,12,29,22.30
2014,08,19,12,30,22.30
2014,08,19,12,31,22.30
2014,08,19,12,32,22.40
2014,08,19,12,33,22.40
2014,08,19,12,34,22.50
2014,08,19,12,35,22.60
2014,08,19,12,36,22.60
2014,08,19,12,37,22.60
2014,08,19,12,38,22.60
2014,08,19,12,39,22.60
2014,08,19,12,40,22.50
2014,08,19,12,41,22.50
2014,08,19,12,42,22.40
2014,08,19,12,43,22.40
2014,08,19,12,44,22.40
2014,08,19,12,45,22.40
2014,08,19,12,46,22.40
2014,08,19,12,47,22.50
2014,08,19,12,48,22.50
2014,08,19,12,49,22.50
2014,08,19,12,50,22.60
2014,08,19,12,51,22.60
2014,08,19,12,52,22.50
2014,08,19,12,53,22.50
2014,08,19,12,54,22.50
2014,08,19,12,55,22.50
2014,08,19,12,56,22.50
2014,08,19,12,57,22.50
2014,08,19,12,58,22.40
2014,08,19,12,59,22.30
2014,08,19,13,00,22.30
2014,08,19,13,01,22.20
2014,08,19,13,02,22.20
2014,08,19,13,03,22.20
2014,08,19,13,04,22.20
2014,08,19,13,05,22.20
2014,08,19,13,06,22.20
2014,08,19,13,07,22.20
2014,08,19,13,08,22.20
2014,08,19,13,09,22.20
2014,08,19,13,10,22.20
2014,08,19,13,11,22.30
2014,08,19,13,12,22.40
2014,08,19,13,13,22.40
2014,08,19,13,14,22.50
2014,08,19,13,15,22.50
2014,08,19,13,16,22.50
2014,08,19,13,17,22.50
2014,08,19,13,18,22.60
2014,08,19,13,19,22.60
2014,08,19,13,20,22.60
2014,08,19,13,21,22.60
2014,08,19,13,22,22.60
2014,08,19,13,23,22.60
2014,08,19,13,24,22.70
2014,08,19,13,25,22.80
2014,08,19,13,26,22.90
2014,08,19,13,27,23.00
2014,08,19,13,28,23.10
2014,08,19,13,29,23.20
2014,08,19,13,30,23.20
2014,08,19,13,31,23.30
2014,08,19,13,32,23.40
2014,08,19,13,33,23.40
2014,08,19,13,34,23.40
2014,08,19,13,35,23.30
2014,08,19,13,36,23.20
2014,08,19,13,37,23.20
2014,08,19,13,38,23.10
2014,08,19,13,39,23.10
2014,08,19,13,40,23.00
2014,08,19,13,41,23.00
2014,08,19,13,42,23.00
2014,08,19,13,43,22.90
2014,08,19,13,44,22.90
2014,08,19,13,45,22.90
2014,08,19,13,46,22.90
2014,08,19,13,47,22.90
2014,08,19,13,48,22.90
2014,08,19,13,49,22.80
2014,08,19,13,50,22.80
2014,08,19,13,51,22.90
2014,08,19,13,52,22.90
2014,08,19,13,53,22.90
2014,08,19,13,54,23.00
2014,08,19,13,55,23.10
2014,08,19,13,56,23.10
2014,08,19,13,57,23.10
2014,08,19,13,58,23.10
2014,08,19,13,59,23.10
2014,08,19,14,00,23.10
2014,08,19,14,01,23.20
2014,08,19,14,02,23.30
2014,08,19,14,03,23.30
2014,08,19,14,04,23.30
2014,08,19,14,05,23.20
2014,08,19,14,06,23.20
2014,08,19,14,07,23.10
2014,08,19,14,08,23.10
2014,08,19,14,09,23.10
2014,08,19,14,10,23.10
2014,08,19,14,11,23.20
2014,08,19,14,12,23.20
2014,08,19,14,13,23.30
2014,08,19,14,14,23.30
2014,08,19,14,15,23.30
2014,08,19,14,16,23.30
2014,08,19,14,17,23.30
2014,08,19,14,18,23.30
2014,08,19,14,19,23.30
2014,08,19,14,20,23.40
2014,08,19,14,21,23.40
2014,08,19,14,22,23.50
2014,08,19,14,23,23.50
2014,08,19,14,24,23.50
2014,08,19,14,25,23.50
2014,08,19,14,26,23.50
2014,08,19,14,27,23.40
2014,08,19,14,28,23.50
2014,08,19,14,29,23.50
2014,08,19,14,30,23.50
2014,08,19,14,31,23.60
2014,08,19,14,32,23.70
2014,08,19,14,33,23.70
2014,08,19,14,34,23.70
2014,08,19,14,35,23.70
2014,08,19,14,36,23.80
2014,08,19,14,37,23.80
2014,08,19,14,38,23.90
2014,08,19,14,39,23.90
2014,08,19,14,40,23.90
2014,08,19,14,41,23.90
2014,08,19,14,42,23.90
2014,08,19,14,43,23.90
2014,08,19,14,44,23.90
2014,08,19,14,45,23.80
2014,08,19,14,46,23.80
2014,08,19,14,47,23.80
2014,08,19,14,48,23.80
2014,08,19,14,49,23.80
2014,08,19,14,50,23.70
2014,08,19,14,51,23.70
2014,08,19,14,52,23.80
2014,08,19,14,53,23.80
2014,08,19,14,54,23.80
2014,08,19,14,55,23.80
2014,08,19,14,56,23.80
2014,08,19,14,57,23.80
2014,08,19,14,58,23.80
2014,08,19,14,59,23.80
2014,08,19,15,00,23.80
2014,08,19,15,01,23.80
2014,08,19,15,02,23.90
2014,08,19,15,03,23.90
2014,08,19,15,04,24.00
2014,08,19,15,05,24.10
2014,08,19,15,06,24.10
2014,08,19,15,07,24.10
2014,08,19,15,08,24.20
2014,08,19,15,09,24.30
2014,08,19,15,10,24.30
2014,08,19,15,11,24.30
2014,08,19,15,12,24.30
2014,08,19,15,13,24.30
2014,08,19,15,14,24.30
2014,08,19,15,15,24.30
2014,08,19,15,16,24.30
2014,08,19,15,17,24.30
2014,08,19,15,18,24.30
2014,08,19,15,19,24.30
2014,08,19,15,20,24.30
2014,08,19,15,21,24.40
2014,08,19,15,22,24.40
2014,08,19,15,23,24.40
2014,08,19,15,24,24.30
2014,08,19,15,25,24.30
2014,08,19,15,26,24.30
2014,08,19,15,27,24.30
2014,08,19,15,28,24.20
2014,08,19,15,29,24.20
2014,08,19,15,30,24.20
2014,08,19,15,31,24.20
2014,08,19,15,32,24.10
2014,08,19,15,33,24.10
2014,08,19,15,34,24.10
2014,08,19,15,35,24.10
2014,08,19,15,36,24.10
2014,08,19,15,37,24.10
2014,08,19,15,38,24.10
2014,08,19,15,39,24.10
2014,08,19,15,40,24.10
2014,08,19,15,41,24.20
2014,08,19,15,42,24.10
2014,08,19,15,43,24.10
2014,08,19,15,44,24.10
2014,08,19,15,45,24.10
2014,08,19,15,46,24.10
2014,08,19,15,47,24.10
2014,08,19,15,48,24.10
2014,08,19,15,49,24.10
2014,08,19,15,50,24.00
2014,08,19,15,51,24.00
2014,08,19,15,52,23.90
2014,08,19,15,53,23.90
2014,08,19,15,54,23.90
2014,08,19,15,55,23.80
2014,08,19,15,56,23.80
2014,08,19,15,57,23.80
2014,08,19,15,58,23.80
2014,08,19,15,59,23.80
2014,08,19,16,00,23.80
2014,08,19,16,01,23.80
2014,08,19,16,02,23.80
2014,08,19,16,03,23.80
2014,08,19,16,04,23.70
2014,08,19,16,05,23.70
2014,08,19,16,06,23.60
2014,08,19,16,07,23.60
2014,08,19,16,08,23.50
2014,08,19,16,09,23.40
2014,08,19,16,10,23.40
2014,08,19,16,11,23.30
2014,08,19,16,12,23.30
2014,08,19,16,13,23.20
2014,08,19,16,14,23.20
2014,08,19,16,15,23.20
2014,08,19,16,16,23.20
2014,08,19,16,17,23.20
2014,08,19,16,18,23.30
2014,08,19,16,19,23.30
2014,08,19,16,20,23.30
2014,08,19,16,21,23.30
2014,08,19,16,22,23.30
2014,08,19,16,23,23.30
2014,08,19,16,24,23.40
2014,08,19,16,25,23.40
2014,08,19,16,26,23.50
2014,08,19,16,27,23.50
2014,08,19,16,28,23.50
2014,08,19,16,29,23.60
2014,08,19,16,30,23.60
2014,08,19,16,31,23.60
2014,08,19,16,32,23.70
2014,08,19,16,33,23.70
2014,08,19,16,34,23.70
2014,08,19,16,35,23.70
2014,08,19,16,36,23.80
2014,08,19,16,37,23.80
2014,08,19,16,38,23.80
2014,08,19,16,39,23.80
2014,08,19,16,40,23.80
2014,08,19,16,41,23.90
2014,08,19,16,42,23.90
2014,08,19,16,43,23.90
2014,08,19,16,44,23.90
2014,08,19,16,45,23.90
2014,08,19,16,46,23.90
2014,08,19,16,47,23.90
2014,08,19,16,48,23.90
2014,08,19,16,49,23.90
2014,08,19,16,50,24.00
2014,08,19,16,51,23.90
2014,08,19,16,52,23.90
2014,08,19,16,53,23.90
2014,08,19,16,54,23.80
2014,08,19,16,55,23.80
2014,08,19,16,56,23.70
2014,08,19,16,57,23.70
2014,08,19,16,58,23.60
2014,08,19,16,59,23.60
2014,08,19,17,00,23.50
2014,08,19,17,01,23.50
2014,08,19,17,02,23.50
2014,08,19,17,03,23.40
2014,08,19,17,04,23.40
2014,08,19,17,05,23.40
2014,08,19,17,06,23.40
2014,08,19,17,07,23.30
2014,08,19,17,08,23.30
2014,08,19,17,09,23.40
2014,08,19,17,10,23.40
2014,08,19,17,11,23.40
2014,08,19,17,12,23.40
2014,08,19,17,13,23.40
2014,08,19,17,14,23.40
2014,08,19,17,15,23.40
2014,08,19,17,16,23.40
2014,08,19,17,17,23.40
2014,08,19,17,18,23.30
2014,08,19,17,19,23.20